(231338) = 2006 DW200

Discovered at Anderson Mesa on 2006-02-25 by LONEOS.

Orbit

Orbit type: Main Belt

Note: WebGL enabled browser required.

epoch2023-09-13.0
epoch JD2460200.5
perihelion date2022-12-09.01851
perihelion JD2459922.51851
argument of perihelion (°)25.88802
ascending node (°)113.21997
inclination (°)12.70531
eccentricity0.1291405
perihelion distance (AU)2.2989561
Tisserand w.r.t. Jupiter3.3
ΔV w.r.t. Earth (km/sec)10.3
semimajor axis (AU)2.6398702
mean anomaly (°)63.87720
mean daily motion (°/day)0.22978940
aphelion distance (AU)2.981
period (years)4.29
P-vector [x]-0.74611996
P-vector [y]0.56628588
P-vector [z]0.35017897
Q-vector [x]-0.63439104
Q-vector [y]-0.76430391
Q-vector [z]-0.11570456
absolute magnitude16.11
phase slope0.15
uncertainty0
referenceMPEC 2023-X152
observations used556
oppositions14
arc length (days)7678
first opposition used2002
last opposition used2023
residual rms (arc-secs)0.74
perturbers coarse indicatorM-v
perturbers precise indicator003Ek
first observation date used2002-05-05.0
last observation date used2023-05-13.0
computer nameMPCLINUX
JD of orbit computation2456731.615789
perihelion JD uncertainty (days)1.0248E-04
argument of perihelion uncertainty (°)3.5149E-05
ascending node uncertainty (°)1.8928E-05
inclination uncertainty (°)4.1778E-06
eccentricity uncertainty 4.1213E-08
perihelion distance uncertainty (AU)1.0976E-07
Minimum Orbit Intersection Distances (in AU)
for orbit epoch: 2460200.5, reference: E2023-XF2
Mercury1.94949
Venus1.58138
Earth1.31824
Mars0.65228
Jupiter2.08812
Saturn6.59915
Uranus16.1481
Neptune27.0487

Observations

552 total observations over interval: 2002 05 05.45573 – 2023 05 13.219324
These data are available for download (format description).

Date (UT) J2000 RA J2000 Dec Magn Location Ref
2002 05 05.45573 15 21 28.22 +01 11 42.8 19.6 R 644 – Palomar Mountain/NEAT MPS 167205
2002 05 05.46605 15 21 27.59 +01 11 43.7 18.6 R 644 – Palomar Mountain/NEAT MPS 167205
2002 05 05.47655 15 21 27.03 +01 11 44.9 19.3 R 644 – Palomar Mountain/NEAT MPS 167205
2002 05 13.39385 15 14 14.24 +01 21 46.0 19.5 R 644 – Palomar Mountain/NEAT MPS 167205
2002 05 13.40538 15 14 13.60 +01 21 46.3 19.1 R 644 – Palomar Mountain/NEAT MPS 167205
2002 05 13.41572 15 14 13.01 +01 21 46.7 19.4 R 644 – Palomar Mountain/NEAT MPS 167205
2004 10 20.449057 03 44 43.264 +01 05 57.11 20.14 V 645 – Apache Point-Sloan Digital Sky Survey MPS 390357
2004 10 20.452529 03 44 43.131 +01 05 56.18 20.79   645 – Apache Point-Sloan Digital Sky Survey MPS 390357
2004 11 10.333177 03 27 55.405 -00 05 34.99 19.58 V 645 – Apache Point-Sloan Digital Sky Survey MPS 390357
2004 11 10.336649 03 27 55.206 -00 05 35.37 20.23   645 – Apache Point-Sloan Digital Sky Survey MPS 390357
2004 11 12.25348 03 26 06.71 -00 09 04.1 19.4   704 – Lincoln Laboratory ETS, New Mexico MPS 213762
2004 11 12.26541 03 26 05.98 -00 09 05.0 20.2   704 – Lincoln Laboratory ETS, New Mexico MPS 213762
2004 11 12.27734 03 26 05.20 -00 09 07.2 19.9   704 – Lincoln Laboratory ETS, New Mexico MPS 213762
2004 11 12.28927 03 26 04.60 -00 09 07.2 19.5   704 – Lincoln Laboratory ETS, New Mexico MPS 213762
2004 12 12.187257 03 00 57.886 +00 32 26.88 20.07 V 645 – Apache Point-Sloan Digital Sky Survey MPS 390357
2004 12 12.190729 03 00 57.759 +00 32 27.77 20.65   645 – Apache Point-Sloan Digital Sky Survey MPS 390357
2006 02 25.34505 13 22 23.26 +10 51 40.0 19.2 R 699 – Lowell Observatory-LONEOS MPS 166371
2006 02 25.37244 13 22 22.87 +10 51 55.5   699 – Lowell Observatory-LONEOS MPS 166371
2006 02 25.39983 13 22 22.66 +10 52 11.3   699 – Lowell Observatory-LONEOS MPS 166371
2006 02 25.42730 13 22 22.39 +10 52 25.5   699 – Lowell Observatory-LONEOS MPS 166371
2006 03 04.42796 13 20 38.97 +11 57 42.5 19.0 V 703 – Catalina Sky Survey MPS 166372
2006 03 04.43461 13 20 38.83 +11 57 49.4 20.4 V 703 – Catalina Sky Survey MPS 166372
2006 03 04.44159 13 20 38.68 +11 57 52.4 19.3 V 703 – Catalina Sky Survey MPS 166372
2006 03 04.44829 13 20 38.47 +11 57 56.2 20.2 V 703 – Catalina Sky Survey MPS 166372
2006 03 25.28024 13 08 19.64 +15 05 16.4 19.4 V 703 – Catalina Sky Survey MPS 167205
2006 03 25.28841 13 08 19.32 +15 05 22.1 19.4 V 703 – Catalina Sky Survey MPS 167205
2006 03 25.29656 13 08 18.85 +15 05 25.4 19.1 V 703 – Catalina Sky Survey MPS 167205
2006 03 25.30473 13 08 18.45 +15 05 30.3 19.3 V 703 – Catalina Sky Survey MPS 167205
2006 04 02.32664 13 01 45.84 +16 00 31.9 19.2 V 703 – Catalina Sky Survey MPS 169933
2006 04 02.33689 13 01 45.30 +16 00 36.3 19.0 V 703 – Catalina Sky Survey MPS 169933
2006 04 02.34706 13 01 44.79 +16 00 40.3 18.9 V 703 – Catalina Sky Survey MPS 169933
2006 04 02.35736 13 01 44.29 +16 00 42.5 18.8 V 703 – Catalina Sky Survey MPS 169933
2007 06 17.41151 20 07 20.00 -18 41 13.4 20.5 V 691 – Steward Observatory, Kitt Peak-Spacewatch MPS 211070
2007 06 17.42923 20 07 19.35 -18 41 18.2 20.5 V 691 – Steward Observatory, Kitt Peak-Spacewatch MPS 211070
2007 06 17.44696 20 07 18.74 -18 41 23.5 20.7 V 691 – Steward Observatory, Kitt Peak-Spacewatch MPS 211070
2007 06 25.35074 20 02 23.86 -19 22 58.6 19.8 V 691 – Steward Observatory, Kitt Peak-Spacewatch MPS 211386
2007 06 25.36845 20 02 23.04 -19 23 05.2 20.3 V 691 – Steward Observatory, Kitt Peak-Spacewatch MPS 211386
2007 06 25.38371 20 02 22.36 -19 23 10.5 20.4 V 691 – Steward Observatory, Kitt Peak-Spacewatch MPS 211386
2008 09 08.39168 01 56 15.97 -07 07 51.9 20.3 V 703 – Catalina Sky Survey MPS 255897
2008 09 08.39700 01 56 15.90 -07 07 55.1 19.4 V 703 – Catalina Sky Survey MPS 255897
2008 09 08.40234 01 56 15.72 -07 07 56.1 20.5 V 703 – Catalina Sky Survey MPS 255897
2008 09 08.40766 01 56 15.64 -07 08 00.5 20.2 V 703 – Catalina Sky Survey MPS 255897
2009 11 17.48476 09 48 46.29 +14 46 11.4 20.6 V 691 – Steward Observatory, Kitt Peak-Spacewatch MPS 303347
2009 11 17.50463 09 48 47.71 +14 46 10.2 20.6 V 691 – Steward Observatory, Kitt Peak-Spacewatch MPS 303347
2009 11 17.54006 09 48 50.24 +14 46 08.0 20.8 V 691 – Steward Observatory, Kitt Peak-Spacewatch MPS 303347
2010 01 14.42178 10 23 54.01 +18 32 19.2   691 – Steward Observatory, Kitt Peak-Spacewatch MPS 310226
2010 01 14.43947 10 23 53.87 +18 32 29.8   691 – Steward Observatory, Kitt Peak-Spacewatch MPS 310226
2010 01 14.45718 10 23 53.62 +18 32 40.2   691 – Steward Observatory, Kitt Peak-Spacewatch MPS 310226
2010 01 18.06229 10 23 04.09 +19 09 20.3 19.1 V J75 – OAM Observatory, La Sagra MPS 311193
2010 01 18.07661 10 23 03.87 +19 09 29.2 18.7 V J75 – OAM Observatory, La Sagra MPS 311193
2010 01 18.09095 10 23 03.59 +19 09 38.1 18.9 V J75 – OAM Observatory, La Sagra MPS 311193
2010 02 21.358027 10 00 19.402 +25 26 19.82 19.00 r F51 – Pan-STARRS 1, Haleakala MPS 338846
2010 02 21.366713 10 00 18.946 +25 26 24.69 18.84 r F51 – Pan-STARRS 1, Haleakala MPS 338846
2010 03 03.509777 09 52 14.885 +26 46 40.65 18.92 i F51 – Pan-STARRS 1, Haleakala MPS 338846
2010 03 03.518688 09 52 14.489 +26 46 43.96 19.02 i F51 – Pan-STARRS 1, Haleakala MPS 338846
2010 03 05.29069 09 50 59.24 +26 57 53.6 19.3 V 703 – Catalina Sky Survey MPS 317781
2010 03 05.29638 09 50 58.95 +26 57 55.9 18.8 V 703 – Catalina Sky Survey MPS 317781
2010 03 05.30215 09 50 58.70 +26 57 57.2 18.9 V 703 – Catalina Sky Survey MPS 317781
2010 03 05.30793 09 50 58.38 +26 57 59.6 19.0 V 703 – Catalina Sky Survey MPS 317781
2010 03 21.11207 09 43 01.63 +27 57 39.8 19.9 V G96 – Mt. Lemmon Survey MPS 320555
2010 03 21.11847 09 43 01.52 +27 57 40.3 19.7 V G96 – Mt. Lemmon Survey MPS 320555
2010 03 21.12494 09 43 01.38 +27 57 41.1 19.7 V G96 – Mt. Lemmon Survey MPS 320555
2010 03 21.13139 09 43 01.27 +27 57 41.6 19.7 V G96 – Mt. Lemmon Survey MPS 320555
2010 05 05.19693 09 59 28.43 +25 36 32.9 20.3   704 – Lincoln Laboratory ETS, New Mexico MPS 382981
2010 05 05.20699 09 59 28.94 +25 36 29.6 20.4   704 – Lincoln Laboratory ETS, New Mexico MPS 382981
2010 05 05.22732 09 59 29.99 +25 36 21.8 20.4   704 – Lincoln Laboratory ETS, New Mexico MPS 382981
2010 05 09.060567 10 03 08.54 +25 10 00.1   C51 – WISE MPS 328524
2010 05 09.060694 10 03 08.52 +25 09 59.3   C51 – WISE MPS 328524
2010 05 09.192872 10 03 16.32 +25 09 03.0   C51 – WISE MPS 328524
2010 05 09.192999 10 03 16.33 +25 09 03.0   C51 – WISE MPS 328524
2010 05 09.325176 10 03 24.17 +25 08 06.8   C51 – WISE MPS 328524
2010 05 09.325303 10 03 24.13 +25 08 06.8   C51 – WISE MPS 328524
2010 05 09.457480 10 03 32.00 +25 07 10.0   C51 – WISE MPS 328524
2010 05 09.457608 10 03 32.01 +25 07 10.3   C51 – WISE MPS 328524
2010 05 09.589912 10 03 39.85 +25 06 12.9   C51 – WISE MPS 328524
2010 05 09.656000 10 03 43.78 +25 05 44.8   C51 – WISE MPS 328524
2010 05 09.722215 10 03 47.72 +25 05 16.1   C51 – WISE MPS 328524
2010 05 09.788304 10 03 51.69 +25 04 47.8   C51 – WISE MPS 328524
2010 05 09.854520 10 03 55.63 +25 04 19.3   C51 – WISE MPS 328524
2010 05 09.920608 10 03 59.62 +25 03 50.9   C51 – WISE MPS 328524
2010 05 09.986824 10 04 03.53 +25 03 22.7   C51 – WISE MPS 328524
2010 05 10.052912 10 04 07.49 +25 02 54.1   C51 – WISE MPS 328524
2010 05 10.185216 10 04 15.46 +25 01 56.7   C51 – WISE MPS 328524
2010 05 10.317521 10 04 23.40 +25 00 59.1   C51 – WISE MPS 328524
2010 05 10.449825 10 04 31.36 +25 00 01.5   C51 – WISE MPS 328524
2010 05 16.15521 10 10 31.04 +24 16 59.4 20.5 V 691 – Steward Observatory, Kitt Peak-Spacewatch MPS 328524
2010 05 16.16584 10 10 31.76 +24 16 54.5 20.9 V 691 – Steward Observatory, Kitt Peak-Spacewatch MPS 328524
2010 05 16.17646 10 10 32.40 +24 16 49.3 20.6 V 691 – Steward Observatory, Kitt Peak-Spacewatch MPS 328524
2013 11 29.74651 07 17 16.72 +15 17 37.0 20.1 R D29 – Purple Mountain Observatory, XuYi Station MPS 490814
2013 11 29.80218 07 17 15.61 +15 17 48.5 20.2 R D29 – Purple Mountain Observatory, XuYi Station MPS 490814
2013 12 11.57257 07 11 46.579 +16 10 46.34 19.3 w F51 – Pan-STARRS 1, Haleakala MPS 491858
2013 12 11.58772 07 11 45.965 +16 10 51.14 19.3 w F51 – Pan-STARRS 1, Haleakala MPS 491858
